Location: Birkenwerder
(52.6919°N, 13.2774°E)
Time: 20:43:12
(UTC+00:00)

STARLINK-1272 - Pass Details

Date: 07 June 2020
Orbit: 568 x 571 km, 53.0° (Epoch: 04 July)

Event Time Altitude Azimuth Distance (km) Brightness Sun altitude
Exits shadow 00:39:58 14° 233° (SW) 1,642 5.5 -11.8°
Maximum altitude 00:43:33 57° 157° (SSE) 675 3.8 -11.6°
Drops below altitude 10° 00:47:46 10° 78° (ENE) 1,882 6.8 -11.3°
Sets 00:50:03 0° 75° (ENE) 2,783 7.8 -11.2°
